TimeCST,TemperatureF,Dew PointF,Humidity,Sea Level PressureIn,VisibilityMPH,Wind Direction,Wind SpeedMPH,Gust SpeedMPH,PrecipitationIn,Events,Conditions,WindDirDegrees,DateUTC
12:53 AM,28.9,23.0,78,29.84,10.0,WSW,9.2,-,N/A,,Clear,240,2014-02-13 06:53:00
1:53 AM,30.9,23.0,72,29.83,10.0,WSW,11.5,-,N/A,,Clear,240,2014-02-13 07:53:00
2:53 AM,30.9,23.0,72,29.83,10.0,WSW,12.7,-,N/A,,Clear,240,2014-02-13 08:53:00
3:53 AM,28.0,21.9,78,29.84,10.0,WSW,6.9,-,N/A,,Clear,240,2014-02-13 09:53:00
4:53 AM,28.9,23.0,78,29.86,10.0,West,11.5,-,N/A,,Clear,260,2014-02-13 10:53:00
5:53 AM,27.0,23.0,85,29.88,10.0,West,6.9,-,N/A,,Clear,260,2014-02-13 11:53:00
6:53 AM,25.0,21.9,88,29.91,10.0,SSW,4.6,-,N/A,,Clear,210,2014-02-13 12:53:00
7:53 AM,27.0,23.0,85,29.93,10.0,Calm,Calm,-,N/A,,Clear,0,2014-02-13 13:53:00
8:53 AM,28.9,25.0,85,29.94,10.0,WSW,6.9,-,N/A,,Clear,240,2014-02-13 14:53:00
9:53 AM,34.0,28.0,79,29.94,10.0,SW,8.1,-,N/A,,Clear,230,2014-02-13 15:53:00
10:53 AM,39.0,30.0,70,29.94,10.0,WSW,10.4,-,N/A,,Clear,240,2014-02-13 16:53:00
11:53 AM,42.1,30.9,65,29.91,10.0,WSW,10.4,-,N/A,,Clear,250,2014-02-13 17:53:00
12:53 PM,43.0,32.0,65,29.87,10.0,SSW,6.9,-,N/A,,Clear,210,2014-02-13 18:53:00
1:53 PM,46.0,33.1,61,29.84,10.0,WSW,10.4,-,N/A,,Clear,240,2014-02-13 19:53:00
2:53 PM,46.0,34.0,63,29.81,10.0,SW,11.5,-,N/A,,Clear,230,2014-02-13 20:53:00
3:53 PM,45.0,33.1,63,29.79,10.0,SW,6.9,-,N/A,,Partly Cloudy,230,2014-02-13 21:53:00
4:53 PM,46.0,34.0,63,29.78,10.0,SW,10.4,-,N/A,,Clear,220,2014-02-13 22:53:00
5:53 PM,42.1,33.1,70,29.77,10.0,SW,4.6,-,N/A,,Clear,220,2014-02-13 23:53:00
6:53 PM,37.0,32.0,82,29.77,10.0,Calm,Calm,-,N/A,,Clear,0,2014-02-14 00:53:00
7:53 PM,37.0,32.0,82,29.75,10.0,SW,8.1,-,N/A,,Clear,220,2014-02-14 01:53:00
8:53 PM,36.0,30.9,82,29.74,10.0,WSW,8.1,-,N/A,,Clear,250,2014-02-14 02:53:00
9:53 PM,37.9,32.0,79,29.73,10.0,WSW,11.5,-,N/A,,Clear,250,2014-02-14 03:53:00
10:53 PM,42.1,32.0,67,29.70,10.0,West,15.0,-,N/A,,Clear,270,2014-02-14 04:53:00
11:53 PM,43.0,32.0,65,29.74,10.0,NW,19.6,-,N/A,,Clear,310,2014-02-14 05:53:00